Location: Burland Observatory
(39.4088°N, 105.4217°W)
Time: 05:34:06
(UTC-07:00)

ISS - Visible Passes

Search period start: 19 November 2019 00:00
Search period end: 29 November 2019 00:00
Orbit: 412 x 421 km, 51.6° (Epoch: 19 November)

Date Brightness Start Highest point End Pass type
(mag) Time Alt. Az. Time Alt. Az. Time Alt. Az.
19 Nov -1.2 18:58:59 10° SW 18:59:51 17° SW 18:59:51 17° SW visible
20 Nov -2.8 18:10:59 10° SSW 18:13:52 31° SE 18:13:52 31° SE visible
21 Nov -1.9 17:23:26 10° S 17:25:44 17° SE 17:27:48 11° E visible
21 Nov -1.6 18:58:58 10° WSW 19:00:44 27° W 19:00:44 27° W visible
22 Nov -3.8 18:10:27 10° SW 18:13:47 84° NW 18:14:33 50° NE visible
23 Nov -3.5 17:22:10 10° SW 17:25:25 52° SE 17:28:18 13° ENE visible
23 Nov -1.2 18:59:38 10° W 19:01:13 19° NW 19:01:13 19° NW visible
24 Nov -2.4 18:10:44 10° W 18:13:47 32° NNW 18:14:52 25° N visible
25 Nov -3.2 17:22:01 10° WSW 17:25:16 51° NW 17:28:28 11° NE visible
25 Nov -0.8 19:00:47 10° NW 19:01:22 12° NW 19:01:22 12° NW visible
26 Nov -1.6 18:11:36 10° WNW 18:13:56 17° NNW 18:14:54 16° N visible
27 Nov -2.0 17:22:33 10° W 17:25:18 23° NNW 17:28:04 10° NNE visible
28 Nov -1.2 18:12:51 10° NW 18:14:14 12° N 18:14:45 12° N visible
